Location: Unspecified
(0.0000°N, 0.0000°E)
Time: 18:36:21
(UTC+00:00)

Hubble Space Telescope - Visible Passes

Search period start: 29 July 2021 00:00
Search period end: 08 August 2021 00:00
Orbit: 535 x 539 km, 28.5° (Epoch: 29 July)

Date Brightness Start Highest point End Pass type
(mag) Time Alt. Az. Time Alt. Az. Time Alt. Az.
05 Aug 3.5 20:15:18 10° NNW 20:15:57 13° NNW 20:15:57 13° NNW visible
06 Aug 2.9 20:03:57 10° NNW 20:05:39 20° NNW 20:05:39 20° NNW visible
07 Aug 2.1 19:52:43 10° NW 19:55:23 33° NNW 19:55:23 33° NNW visible
